Location: Unspecified
(39.0670°S, 0.0000°E)
Time: 09:49:53
(UTC+00:00)

Envisat - Pass Details

Date: 27 June 2019
Orbit: 764 x 766 km, 98.1° (Epoch: 25 August)

Event Time Altitude Azimuth Distance (km) Brightness Sun altitude
Rises 06:04:35 0° 23° (NNE) 3,224 6.9 -14.2°
Reaches altitude 10° 06:06:53 10° 26° (NNE) 2,305 6.1 -13.7°
Maximum altitude 06:11:54 63° 106° (ESE) 865 3.5 -12.8°
Drops below altitude 10° 06:16:59 10° 186° (S) 2,334 5.3 -11.9°
Sets 06:19:20 0° 189° (S) 3,268 6.0 -11.5°
